Time,TemperatureF,DewpointF,PressureIn,WindDirection,WindDirectionDegrees,WindSpeedMPH,WindSpeedGustMPH,Humidity,HourlyPrecipIn,Conditions,Clouds,dailyrainin,SoftwareType,DateUTC
2013-10-11 00:01:00,59.2,22.4,27.34,SSW,202,0.0,1.1,24,0.00,,---,0.00,VWS V14.01,2013-10-11 07:01:00,
2013-10-11 00:06:00,59.0,22.3,27.34,SSE,158,2.5,2.5,24,0.00,,---,0.00,VWS V14.01,2013-10-11 07:06:00,
2013-10-11 00:11:00,58.8,22.1,27.34,SSE,158,0.0,2.9,24,0.00,,---,0.00,VWS V14.01,2013-10-11 07:11:00,
2013-10-11 00:16:00,58.8,22.1,27.34,SSE,158,0.0,2.9,24,0.00,,---,0.00,VWS V14.01,2013-10-11 07:16:00,
2013-10-11 00:22:00,58.8,22.1,27.34,WSW,248,1.1,2.9,24,0.00,,---,0.00,VWS V14.01,2013-10-11 07:22:00,
2013-10-11 00:27:00,58.6,22.0,27.34,WSW,248,0.0,2.9,24,0.00,,---,0.00,VWS V14.01,2013-10-11 07:27:00,
2013-10-11 00:32:00,58.5,22.8,27.34,WSW,248,0.0,2.9,25,0.00,,---,0.00,VWS V14.01,2013-10-11 07:32:00,
2013-10-11 00:37:00,58.3,22.6,27.34,WSW,248,0.0,2.9,25,0.00,,---,0.00,VWS V14.01,2013-10-11 07:37:00,
2013-10-11 00:42:00,58.1,22.5,27.34,WSW,248,0.0,2.9,25,0.00,,---,0.00,VWS V14.01,2013-10-11 07:42:00,
2013-10-11 00:47:00,57.9,22.3,27.34,WSW,248,0.0,2.9,25,0.00,,---,0.00,VWS V14.01,2013-10-11 07:47:00,
2013-10-11 00:52:00,57.9,22.3,27.34,WSW,248,0.0,2.9,25,0.00,,---,0.00,VWS V14.01,2013-10-11 07:52:00,
2013-10-11 00:57:00,57.7,22.2,27.34,SSW,202,0.0,2.9,25,0.00,,---,0.00,VWS V14.01,2013-10-11 07:57:00,
2013-10-11 01:02:00,57.6,23.0,27.34,SSW,202,0.0,1.1,26,0.00,,---,0.00,VWS V14.01,2013-10-11 08:02:00,
2013-10-11 01:07:00,57.4,22.8,27.34,SSW,202,0.0,1.1,26,0.00,,---,0.00,VWS V14.01,2013-10-11 08:07:00,
2013-10-11 01:12:00,57.4,22.8,27.34,SSW,202,0.0,1.1,26,0.00,,---,0.00,VWS V14.01,2013-10-11 08:12:00,
2013-10-11 01:17:00,57.4,22.8,27.34,SSW,202,0.0,1.1,26,0.00,,---,0.00,VWS V14.01,2013-10-11 08:17:00,
2013-10-11 01:22:00,57.2,22.6,27.34,SSW,202,1.3,1.3,26,0.00,,---,0.00,VWS V14.01,2013-10-11 08:22:00,
2013-10-11 01:27:00,57.2,22.6,27.34,SSW,202,0.0,1.3,26,0.00,,---,0.00,VWS V14.01,2013-10-11 08:27:00,
2013-10-11 01:32:00,57.0,23.4,27.34,SSW,202,0.0,1.3,27,0.00,,---,0.00,VWS V14.01,2013-10-11 08:32:00,
2013-10-11 01:37:00,57.0,23.4,27.34,SE,135,2.0,2.0,27,0.00,,---,0.00,VWS V14.01,2013-10-11 08:37:00,
2013-10-11 01:42:00,57.2,22.6,27.34,SE,135,2.5,3.6,26,0.00,,---,0.00,VWS V14.01,2013-10-11 08:42:00,
2013-10-11 01:47:00,57.2,22.6,27.34,East,90,2.2,3.6,26,0.00,,---,0.00,VWS V14.01,2013-10-11 08:47:00,
2013-10-11 01:52:00,57.0,22.5,27.34,East,90,2.5,3.6,26,0.00,,---,0.00,VWS V14.01,2013-10-11 08:52:00,
2013-10-11 01:57:00,56.8,22.3,27.34,ESE,112,2.5,4.0,26,0.00,,---,0.00,VWS V14.01,2013-10-11 08:57:00,
2013-10-11 02:02:00,56.8,22.3,27.34,East,90,2.2,3.4,26,0.00,,---,0.00,VWS V14.01,2013-10-11 09:02:00,
2013-10-11 02:07:00,56.7,22.2,27.34,East,90,0.0,3.4,26,0.00,,---,0.00,VWS V14.01,2013-10-11 09:07:00,
2013-10-11 02:12:00,56.3,21.9,27.34,East,90,0.0,3.4,26,0.00,,---,0.00,VWS V14.01,2013-10-11 09:12:00,
2013-10-11 02:17:00,56.1,21.7,27.34,SSE,158,2.0,3.4,26,0.00,,---,0.00,VWS V14.01,2013-10-11 09:17:00,
2013-10-11 02:22:00,55.9,21.6,27.34,SSE,158,2.9,3.6,26,0.00,,---,0.00,VWS V14.01,2013-10-11 09:22:00,
2013-10-11 02:27:00,55.9,22.5,27.34,SSE,158,1.6,3.8,27,0.00,,---,0.00,VWS V14.01,2013-10-11 09:27:00,
2013-10-11 02:32:00,55.9,22.5,27.34,ESE,112,2.7,3.8,27,0.00,,---,0.00,VWS V14.01,2013-10-11 09:32:00,
2013-10-11 02:37:00,55.9,22.5,27.34,SSE,158,0.9,3.8,27,0.00,,---,0.00,VWS V14.01,2013-10-11 09:37:00,
2013-10-11 02:43:00,55.8,22.3,27.34,SSE,158,0.0,3.8,27,0.00,,---,0.00,VWS V14.01,2013-10-11 09:43:00,
2013-10-11 02:48:00,55.8,22.3,27.34,SSE,158,0.0,3.8,27,0.00,,---,0.00,VWS V14.01,2013-10-11 09:48:00,
2013-10-11 02:53:00,55.6,22.1,27.34,SSE,158,0.0,3.8,27,0.00,,---,0.00,VWS V14.01,2013-10-11 09:53:00,
2013-10-11 02:58:00,55.6,22.1,27.34,SSE,158,0.0,3.8,27,0.00,,---,0.00,VWS V14.01,2013-10-11 09:58:00,
2013-10-11 03:03:00,55.4,22.0,27.34,SSE,158,0.0,0.0,27,0.00,,---,0.00,VWS V14.01,2013-10-11 10:03:00,
2013-10-11 03:08:00,55.0,22.5,27.34,SSE,158,0.0,0.0,28,0.00,,---,0.00,VWS V14.01,2013-10-11 10:08:00,
2013-10-11 03:13:00,55.0,23.4,27.34,SSE,158,0.0,1.1,29,0.00,,---,0.00,VWS V14.01,2013-10-11 10:13:00,
2013-10-11 03:18:00,54.9,22.4,27.34,SSE,158,0.0,1.1,28,0.00,,---,0.00,VWS V14.01,2013-10-11 10:18:00,
2013-10-11 03:23:00,54.9,23.2,27.34,SSE,158,0.0,1.1,29,0.00,,---,0.00,VWS V14.01,2013-10-11 10:23:00,
2013-10-11 03:28:00,54.7,23.1,27.34,SSE,158,0.0,1.3,29,0.00,,---,0.00,VWS V14.01,2013-10-11 10:28:00,
2013-10-11 03:33:00,54.5,22.9,27.34,East,90,2.5,2.5,29,0.00,,---,0.00,VWS V14.01,2013-10-11 10:33:00,
2013-10-11 03:38:00,54.5,22.9,27.34,East,90,2.5,2.7,29,0.00,,---,0.00,VWS V14.01,2013-10-11 10:38:00,
2013-10-11 03:43:00,54.5,22.9,27.34,East,90,1.6,3.6,29,0.00,,---,0.00,VWS V14.01,2013-10-11 10:43:00,
2013-10-11 03:48:00,54.7,23.1,27.34,SSE,158,3.6,4.0,29,0.00,,---,0.00,VWS V14.01,2013-10-11 10:48:00,
2013-10-11 03:53:00,54.7,23.1,27.34,ESE,112,1.3,4.0,29,0.00,,---,0.00,VWS V14.01,2013-10-11 10:53:00,
2013-10-11 03:58:00,54.7,23.1,27.34,ESE,112,0.0,4.0,29,0.00,,---,0.00,VWS V14.01,2013-10-11 10:58:00,
2013-10-11 04:03:00,54.5,23.7,27.34,ESE,112,0.0,0.0,30,0.00,,---,0.00,VWS V14.01,2013-10-11 11:03:00,
2013-10-11 04:08:00,54.3,23.6,27.34,ESE,112,0.0,0.0,30,0.00,,---,0.00,VWS V14.01,2013-10-11 11:08:00,
2013-10-11 04:13:00,54.3,23.6,27.34,ESE,112,1.1,1.6,30,0.00,,---,0.00,VWS V14.01,2013-10-11 11:13:00,
2013-10-11 04:18:00,54.1,23.4,27.34,ESE,112,0.0,1.6,30,0.00,,---,0.00,VWS V14.01,2013-10-11 11:18:00,
2013-10-11 04:23:00,54.1,23.4,27.34,ESE,112,0.9,1.6,30,0.00,,---,0.00,VWS V14.01,2013-10-11 11:23:00,
2013-10-11 04:28:00,54.0,23.2,27.34,ESE,112,0.0,1.6,30,0.00,,---,0.00,VWS V14.01,2013-10-11 11:28:00,
2013-10-11 04:33:00,53.8,23.1,27.34,ESE,112,0.0,1.6,30,0.00,,---,0.00,VWS V14.01,2013-10-11 11:33:00,
2013-10-11 04:38:00,53.8,23.1,27.34,ESE,112,0.0,1.6,30,0.00,,---,0.00,VWS V14.01,2013-10-11 11:38:00,
2013-10-11 04:43:00,53.6,22.9,27.34,ESE,112,0.0,1.6,30,0.00,,---,0.00,VWS V14.01,2013-10-11 11:43:00,
2013-10-11 04:48:00,53.4,23.6,27.34,ESE,112,2.0,2.0,31,0.00,,---,0.00,VWS V14.01,2013-10-11 11:48:00,
2013-10-11 04:53:00,53.4,23.6,27.34,East,90,1.1,2.5,31,0.00,,---,0.00,VWS V14.01,2013-10-11 11:53:00,
2013-10-11 04:58:00,53.4,23.6,27.34,East,90,1.6,2.5,31,0.00,,---,0.00,VWS V14.01,2013-10-11 11:58:00,
2013-10-11 05:03:00,53.4,23.6,27.34,East,90,0.0,1.3,31,0.00,,---,0.00,VWS V14.01,2013-10-11 12:03:00,
2013-10-11 05:09:00,53.4,23.6,27.34,East,90,0.0,2.0,31,0.00,,---,0.00,VWS V14.01,2013-10-11 12:09:00,
2013-10-11 05:14:00,53.2,23.4,27.34,SE,135,2.5,2.5,31,0.00,,---,0.00,VWS V14.01,2013-10-11 12:14:00,
2013-10-11 05:19:00,53.2,23.4,27.34,SSE,158,2.2,2.9,31,0.00,,---,0.00,VWS V14.01,2013-10-11 12:19:00,
2013-10-11 05:24:00,53.2,23.4,27.34,SSE,158,0.0,3.6,31,0.00,,---,0.00,VWS V14.01,2013-10-11 12:24:00,
2013-10-11 05:29:00,53.1,23.2,27.34,SSE,158,0.0,3.6,31,0.00,,---,0.00,VWS V14.01,2013-10-11 12:29:00,
2013-10-11 05:34:00,53.1,23.2,27.34,SSE,158,2.0,3.6,31,0.00,,---,0.00,VWS V14.01,2013-10-11 12:34:00,
2013-10-11 05:39:00,53.1,23.2,27.34,SSE,158,0.0,3.6,31,0.00,,---,0.00,VWS V14.01,2013-10-11 12:39:00,
2013-10-11 05:44:00,52.9,23.9,27.34,SSE,158,0.0,3.6,32,0.00,,---,0.00,VWS V14.01,2013-10-11 12:44:00,
2013-10-11 05:49:00,52.9,23.9,27.34,SSE,158,1.6,3.6,32,0.00,,---,0.00,VWS V14.01,2013-10-11 12:49:00,
2013-10-11 05:54:00,52.9,24.6,27.34,ENE,68,1.3,3.6,33,0.00,,---,0.00,VWS V14.01,2013-10-11 12:54:00,
2013-10-11 05:59:00,52.9,23.9,27.34,ENE,68,0.0,3.6,32,0.00,,---,0.00,VWS V14.01,2013-10-11 12:59:00,
2013-10-11 06:04:00,52.7,24.4,27.34,ENE,68,0.0,0.0,33,0.00,,---,0.00,VWS V14.01,2013-10-11 13:04:00,
2013-10-11 06:09:00,52.3,24.1,27.34,ENE,68,0.0,0.0,33,0.00,,---,0.00,VWS V14.01,2013-10-11 13:09:00,
2013-10-11 06:14:00,52.3,24.1,27.34,ENE,68,0.0,0.0,33,0.00,,---,0.00,VWS V14.01,2013-10-11 13:14:00,
2013-10-11 06:19:00,52.0,23.8,27.34,ENE,68,0.0,0.0,33,0.00,,---,0.00,VWS V14.01,2013-10-11 13:19:00,
2013-10-11 06:24:00,52.0,24.5,27.34,ENE,68,0.0,0.0,34,0.00,,---,0.00,VWS V14.01,2013-10-11 13:24:00,
2013-10-11 06:29:00,52.0,24.5,27.34,ENE,68,0.0,0.0,34,0.00,,---,0.00,VWS V14.01,2013-10-11 13:29:00,
2013-10-11 06:34:00,52.0,24.5,27.34,ENE,68,0.9,2.0,34,0.00,,---,0.00,VWS V14.01,2013-10-11 13:34:00,
2013-10-11 06:39:00,52.2,24.7,27.34,East,90,0.0,2.0,34,0.00,,---,0.00,VWS V14.01,2013-10-11 13:39:00,
2013-10-11 06:44:00,52.2,24.0,27.34,South,180,2.2,2.5,33,0.00,,---,0.00,VWS V14.01,2013-10-11 13:44:00,
2013-10-11 06:49:00,52.2,24.0,27.34,East,90,2.2,3.4,33,0.00,,---,0.00,VWS V14.01,2013-10-11 13:49:00,
2013-10-11 06:54:00,52.5,24.3,27.34,East,90,2.5,3.4,33,0.00,,---,0.00,VWS V14.01,2013-10-11 13:54:00,
2013-10-11 06:59:00,52.7,24.4,27.34,East,90,2.0,3.4,33,0.00,,---,0.00,VWS V14.01,2013-10-11 13:59:00,
2013-10-11 07:05:00,53.1,24.7,27.34,East,90,2.9,2.9,33,0.00,,---,0.00,VWS V14.01,2013-10-11 14:05:00,
2013-10-11 07:10:00,53.2,24.9,27.34,ESE,112,3.1,3.6,33,0.00,,---,0.00,VWS V14.01,2013-10-11 14:10:00,
2013-10-11 07:15:00,53.4,25.1,27.34,South,180,2.0,3.6,33,0.00,,---,0.00,VWS V14.01,2013-10-11 14:15:00,
2013-10-11 07:20:00,53.8,24.6,27.34,South,180,1.1,3.6,32,0.00,,---,0.00,VWS V14.01,2013-10-11 14:20:00,
2013-10-11 07:25:00,54.0,24.8,27.34,East,90,1.6,3.6,32,0.00,,---,0.00,VWS V14.01,2013-10-11 14:25:00,
2013-10-11 07:30:00,54.3,25.1,27.34,East,90,2.0,3.6,32,0.00,,---,0.00,VWS V14.01,2013-10-11 14:30:00,
2013-10-11 07:35:00,54.5,25.3,27.34,East,90,1.6,3.6,32,0.00,,---,0.00,VWS V14.01,2013-10-11 14:35:00,
2013-10-11 07:40:00,54.7,25.4,27.34,East,90,2.2,3.6,32,0.00,,---,0.00,VWS V14.01,2013-10-11 14:40:00,
2013-10-11 07:45:00,55.0,25.0,27.37,East,90,2.2,3.6,31,0.00,,---,0.00,VWS V14.01,2013-10-11 14:45:00,
2013-10-11 07:50:00,55.4,25.3,27.37,SE,135,0.9,3.6,31,0.00,,---,0.00,VWS V14.01,2013-10-11 14:50:00,
2013-10-11 07:55:00,55.8,24.8,27.37,East,90,0.0,3.6,30,0.00,,---,0.00,VWS V14.01,2013-10-11 14:55:00,
2013-10-11 08:00:00,55.9,25.0,27.37,ENE,68,1.3,1.3,30,0.00,,---,0.00,VWS V14.01,2013-10-11 15:00:00,
2013-10-11 08:05:00,56.3,25.3,27.37,ENE,68,0.0,2.0,30,0.00,,---,0.00,VWS V14.01,2013-10-11 15:05:00,
2013-10-11 08:10:00,56.5,24.6,27.37,SW,225,0.0,2.0,29,0.00,,---,0.00,VWS V14.01,2013-10-11 15:10:00,
2013-10-11 08:15:00,56.8,24.9,27.37,NW,315,1.6,2.5,29,0.00,,---,0.00,VWS V14.01,2013-10-11 15:15:00,
2013-10-11 08:20:00,57.2,25.2,27.37,NW,315,2.0,3.6,29,0.00,,---,0.00,VWS V14.01,2013-10-11 15:20:00,
2013-10-11 08:25:00,57.4,24.6,27.37,SSW,202,1.6,3.6,28,0.00,,---,0.00,VWS V14.01,2013-10-11 15:25:00,
2013-10-11 08:30:00,57.7,24.9,27.37,NW,315,1.1,3.6,28,0.00,,---,0.00,VWS V14.01,2013-10-11 15:30:00,
2013-10-11 08:35:00,58.1,25.2,27.37,NNE,22,2.7,4.3,28,0.00,,---,0.00,VWS V14.01,2013-10-11 15:35:00,
2013-10-11 08:40:00,58.5,24.6,27.37,NNW,338,2.0,4.3,27,0.00,,---,0.00,VWS V14.01,2013-10-11 15:40:00,
2013-10-11 08:45:00,58.8,24.9,27.37,WNW,292,3.4,4.3,27,0.00,,---,0.00,VWS V14.01,2013-10-11 15:45:00,
2013-10-11 08:50:00,59.2,25.2,27.37,SSW,202,1.1,4.3,27,0.00,,---,0.00,VWS V14.01,2013-10-11 15:50:00,
2013-10-11 08:55:00,59.5,24.6,27.37,WNW,292,2.7,4.3,26,0.00,,---,0.00,VWS V14.01,2013-10-11 15:55:00,
2013-10-11 09:00:00,59.9,25.0,27.37,South,180,1.1,1.1,26,0.00,,---,0.00,VWS V14.01,2013-10-11 16:00:00,
2013-10-11 09:05:00,60.3,25.3,27.37,SSW,202,2.0,3.8,26,0.00,,---,0.00,VWS V14.01,2013-10-11 16:05:00,
2013-10-11 09:10:00,60.8,24.8,27.37,WNW,292,1.6,3.8,25,0.00,,---,0.00,VWS V14.01,2013-10-11 16:10:00,
2013-10-11 09:15:00,61.2,25.1,27.37,NW,315,0.9,3.8,25,0.00,,---,0.00,VWS V14.01,2013-10-11 16:15:00,
2013-10-11 09:20:00,61.3,25.2,27.37,WNW,292,4.0,4.5,25,0.00,,---,0.00,VWS V14.01,2013-10-11 16:20:00,
2013-10-11 09:26:00,61.7,25.5,27.37,NW,315,5.4,5.4,25,0.00,,---,0.00,VWS V14.01,2013-10-11 16:26:00,
2013-10-11 09:31:00,62.1,25.9,27.37,NW,315,2.5,5.4,25,0.00,,---,0.00,VWS V14.01,2013-10-11 16:31:00,
2013-10-11 09:36:00,62.4,25.2,27.37,WSW,248,1.6,5.8,24,0.00,,---,0.00,VWS V14.01,2013-10-11 16:36:00,
2013-10-11 09:41:00,62.8,25.5,27.37,North,0,2.0,5.8,24,0.00,,---,0.00,VWS V14.01,2013-10-11 16:41:00,
2013-10-11 09:46:00,63.1,25.8,27.37,NW,315,1.1,5.8,24,0.00,,---,0.00,VWS V14.01,2013-10-11 16:46:00,
2013-10-11 09:51:00,63.3,24.9,27.37,West,270,2.7,5.8,23,0.00,,---,0.00,VWS V14.01,2013-10-11 16:51:00,
2013-10-11 09:56:00,63.9,25.4,27.37,SSE,158,2.2,5.8,23,0.00,,---,0.00,VWS V14.01,2013-10-11 16:56:00,
2013-10-11 10:01:00,64.2,25.7,27.37,WNW,292,3.6,4.7,23,0.00,,---,0.00,VWS V14.01,2013-10-11 17:01:00,
2013-10-11 10:06:00,64.6,26.0,27.37,North,0,2.5,7.8,23,0.00,,---,0.00,VWS V14.01,2013-10-11 17:06:00,
2013-10-11 10:11:00,64.9,22.9,27.37,NW,315,4.3,7.8,20,0.00,,---,0.00,VWS V14.01,2013-10-11 17:11:00,
2013-10-11 10:16:00,65.5,23.4,27.37,NW,315,4.7,7.8,20,0.00,,---,0.00,VWS V14.01,2013-10-11 17:16:00,
2013-10-11 10:21:00,65.7,23.5,27.37,North,0,5.6,7.8,20,0.00,,---,0.00,VWS V14.01,2013-10-11 17:21:00,
2013-10-11 10:26:00,66.0,21.3,27.37,North,0,3.6,7.8,18,0.00,,---,0.00,VWS V14.01,2013-10-11 17:26:00,
2013-10-11 10:31:00,66.2,20.1,27.37,SSW,202,5.8,8.7,17,0.00,,---,0.00,VWS V14.01,2013-10-11 17:31:00,
2013-10-11 10:36:00,66.6,20.4,27.37,NW,315,1.1,8.7,17,0.00,,---,0.00,VWS V14.01,2013-10-11 17:36:00,
2013-10-11 10:41:00,66.7,20.6,27.37,West,270,4.0,8.7,17,0.00,,---,0.00,VWS V14.01,2013-10-11 17:41:00,
2013-10-11 10:46:00,67.1,20.9,27.37,WNW,292,4.3,8.7,17,0.00,,---,0.00,VWS V14.01,2013-10-11 17:46:00,
2013-10-11 10:51:00,67.5,21.2,27.37,WSW,248,2.9,8.7,17,0.00,,---,0.00,VWS V14.01,2013-10-11 17:51:00,
2013-10-11 10:56:00,67.5,21.2,27.37,North,0,2.7,8.7,17,0.00,,---,0.00,VWS V14.01,2013-10-11 17:56:00,
2013-10-11 11:01:00,68.0,21.6,27.37,West,270,3.4,6.5,17,0.00,,---,0.00,VWS V14.01,2013-10-11 18:01:00,
2013-10-11 11:06:00,68.2,21.7,27.37,NNW,338,2.9,8.5,17,0.00,,---,0.00,VWS V14.01,2013-10-11 18:06:00,
2013-10-11 11:11:00,68.5,19.1,27.37,West,270,2.7,8.5,15,0.00,,---,0.00,VWS V14.01,2013-10-11 18:11:00,
2013-10-11 11:16:00,68.9,19.4,27.37,WSW,248,5.8,10.7,15,0.00,,---,0.00,VWS V14.01,2013-10-11 18:16:00,
2013-10-11 11:21:00,69.3,19.7,27.37,WSW,248,5.6,10.7,15,0.00,,---,0.00,VWS V14.01,2013-10-11 18:21:00,
2013-10-11 11:26:00,69.4,19.8,27.37,NW,315,2.9,10.7,15,0.00,,---,0.00,VWS V14.01,2013-10-11 18:26:00,
2013-10-11 11:32:00,69.6,20.0,27.37,WSW,248,4.3,10.7,15,0.00,,---,0.00,VWS V14.01,2013-10-11 18:32:00,
2013-10-11 11:37:00,70.0,18.6,27.37,WSW,248,4.5,10.7,14,0.00,,---,0.00,VWS V14.01,2013-10-11 18:37:00,
2013-10-11 11:42:00,70.2,18.8,27.37,WNW,292,4.7,10.7,14,0.00,,---,0.00,VWS V14.01,2013-10-11 18:42:00,
2013-10-11 11:47:00,70.5,19.1,27.37,West,270,4.0,10.7,14,0.00,,---,0.00,VWS V14.01,2013-10-11 18:47:00,
2013-10-11 11:52:00,70.9,15.8,27.37,WNW,292,4.0,10.7,12,0.00,,---,0.00,VWS V14.01,2013-10-11 18:52:00,
2013-10-11 11:57:00,71.1,15.9,27.37,WSW,248,2.7,10.7,12,0.00,,---,0.00,VWS V14.01,2013-10-11 18:57:00,
2013-10-11 12:02:00,71.1,15.9,27.37,West,270,4.3,7.6,12,0.00,,---,0.00,VWS V14.01,2013-10-11 19:02:00,
2013-10-11 12:07:00,71.4,16.2,27.37,West,270,6.3,7.6,12,0.00,,---,0.00,VWS V14.01,2013-10-11 19:07:00,
2013-10-11 12:12:00,71.6,14.4,27.37,WSW,248,3.1,7.6,11,0.00,,---,0.00,VWS V14.01,2013-10-11 19:12:00,
2013-10-11 12:17:00,72.0,14.6,27.37,WNW,292,5.4,7.6,11,0.00,,---,0.00,VWS V14.01,2013-10-11 19:17:00,
2013-10-11 12:22:00,72.0,14.6,27.37,West,270,5.6,7.6,11,0.00,,---,0.00,VWS V14.01,2013-10-11 19:22:00,
2013-10-11 12:27:00,72.1,14.8,27.37,NW,315,4.0,7.6,11,0.00,,---,0.00,VWS V14.01,2013-10-11 19:27:00,
2013-10-11 12:32:00,72.0,14.6,27.34,NE,45,2.0,7.6,11,0.00,,---,0.00,VWS V14.01,2013-10-11 19:32:00,
2013-10-11 12:37:00,72.0,14.6,27.34,SW,225,2.0,7.6,11,0.00,,---,0.00,VWS V14.01,2013-10-11 19:37:00,
2013-10-11 12:42:00,72.3,14.9,27.34,NNW,338,2.9,7.6,11,0.00,,---,0.00,VWS V14.01,2013-10-11 19:42:00,
2013-10-11 12:47:00,72.5,15.0,27.34,West,270,2.9,7.6,11,0.00,,---,0.00,VWS V14.01,2013-10-11 19:47:00,
2013-10-11 12:52:00,72.9,15.3,27.34,SE,135,1.6,7.6,11,0.00,,---,0.00,VWS V14.01,2013-10-11 19:52:00,
2013-10-11 12:57:00,73.0,15.5,27.34,WNW,292,3.4,7.6,11,0.00,,---,0.00,VWS V14.01,2013-10-11 19:57:00,
2013-10-11 13:02:00,73.0,15.5,27.34,SW,225,3.6,3.6,11,0.00,,---,0.00,VWS V14.01,2013-10-11 20:02:00,
2013-10-11 13:07:00,73.2,15.6,27.34,WNW,292,5.8,7.6,11,0.00,,---,0.00,VWS V14.01,2013-10-11 20:07:00,
2013-10-11 13:12:00,73.4,15.7,27.34,North,0,4.3,7.6,11,0.00,,---,0.00,VWS V14.01,2013-10-11 20:12:00,
2013-10-11 13:17:00,73.4,15.7,27.31,West,270,6.9,7.6,11,0.00,,---,0.00,VWS V14.01,2013-10-11 20:17:00,
2013-10-11 13:22:00,73.6,15.9,27.31,WSW,248,2.9,7.6,11,0.00,,---,0.00,VWS V14.01,2013-10-11 20:22:00,
2013-10-11 13:27:00,73.6,15.9,27.31,South,180,3.1,7.6,11,0.00,,---,0.00,VWS V14.01,2013-10-11 20:27:00,
2013-10-11 13:32:00,73.8,16.0,27.34,East,90,2.7,7.6,11,0.00,,---,0.00,VWS V14.01,2013-10-11 20:32:00,
2013-10-11 13:37:00,73.9,16.1,27.34,SSE,158,4.9,7.6,11,0.00,,---,0.00,VWS V14.01,2013-10-11 20:37:00,
2013-10-11 13:43:00,74.1,16.3,27.34,NNW,338,3.6,7.6,11,0.00,,---,0.00,VWS V14.01,2013-10-11 20:43:00,
2013-10-11 13:48:00,74.3,9.2,27.31,NW,315,6.3,7.6,8,0.00,,---,0.00,VWS V14.01,2013-10-11 20:48:00,
2013-10-11 13:53:00,74.3,9.2,27.31,NW,315,6.0,7.6,8,0.00,,---,0.00,VWS V14.01,2013-10-11 20:53:00,
2013-10-11 13:58:00,74.3,9.2,27.31,West,270,6.5,7.6,8,0.00,,---,0.00,VWS V14.01,2013-10-11 20:58:00,
2013-10-11 14:03:00,74.5,9.4,27.31,WSW,248,3.8,6.3,8,0.00,,---,0.00,VWS V14.01,2013-10-11 21:03:00,
2013-10-11 14:08:00,74.5,9.4,27.31,WSW,248,7.4,7.4,8,0.00,,---,0.00,VWS V14.01,2013-10-11 21:08:00,
2013-10-11 14:13:00,74.7,9.5,27.31,NNW,338,6.0,9.0,8,0.00,,---,0.00,VWS V14.01,2013-10-11 21:13:00,
2013-10-11 14:18:00,74.7,9.5,27.34,West,270,6.0,9.0,8,0.00,,---,0.00,VWS V14.01,2013-10-11 21:18:00,
2013-10-11 14:23:00,74.8,9.6,27.34,NW,315,4.9,10.1,8,0.00,,---,0.00,VWS V14.01,2013-10-11 21:23:00,
2013-10-11 14:28:00,74.8,9.6,27.34,SW,225,3.8,10.1,8,0.00,,---,0.00,VWS V14.01,2013-10-11 21:28:00,
2013-10-11 14:33:00,74.7,9.5,27.31,North,0,6.7,10.1,8,0.00,,---,0.00,VWS V14.01,2013-10-11 21:33:00,
2013-10-11 14:38:00,74.7,9.5,27.31,West,270,7.2,10.1,8,0.00,,---,0.00,VWS V14.01,2013-10-11 21:38:00,
2013-10-11 14:43:00,74.8,9.6,27.31,WSW,248,8.5,12.8,8,0.00,,---,0.00,VWS V14.01,2013-10-11 21:43:00,
2013-10-11 14:48:00,75.0,9.8,27.31,North,0,2.5,12.8,8,0.00,,---,0.00,VWS V14.01,2013-10-11 21:48:00,
2013-10-11 14:53:00,74.8,9.6,27.31,NNW,338,3.1,12.8,8,0.00,,---,0.00,VWS V14.01,2013-10-11 21:53:00,
2013-10-11 14:58:00,74.7,9.5,27.31,North,0,2.2,12.8,8,0.00,,---,0.00,VWS V14.01,2013-10-11 21:58:00,
2013-10-11 15:03:00,74.8,9.6,27.31,West,270,2.5,4.9,8,0.00,,---,0.00,VWS V14.01,2013-10-11 22:03:00,
2013-10-11 15:08:00,74.8,9.6,27.31,SSW,202,3.6,6.3,8,0.00,,---,0.00,VWS V14.01,2013-10-11 22:08:00,
2013-10-11 15:13:00,75.2,9.9,27.31,South,180,3.8,6.3,8,0.00,,---,0.00,VWS V14.01,2013-10-11 22:13:00,
2013-10-11 15:18:00,75.2,9.9,27.31,West,270,3.4,6.3,8,0.00,,---,0.00,VWS V14.01,2013-10-11 22:18:00,
2013-10-11 15:23:00,75.2,9.9,27.31,NW,315,0.0,7.8,8,0.00,,---,0.00,VWS V14.01,2013-10-11 22:23:00,
2013-10-11 15:28:00,75.0,9.8,27.31,North,0,2.0,7.8,8,0.00,,---,0.00,VWS V14.01,2013-10-11 22:28:00,
2013-10-11 15:33:00,75.0,9.8,27.31,NW,315,3.6,8.7,8,0.00,,---,0.00,VWS V14.01,2013-10-11 22:33:00,
2013-10-11 15:38:00,75.0,9.8,27.31,NNW,338,3.6,8.7,8,0.00,,---,0.00,VWS V14.01,2013-10-11 22:38:00,
2013-10-11 15:43:00,75.0,9.8,27.31,NW,315,5.8,8.7,8,0.00,,---,0.00,VWS V14.01,2013-10-11 22:43:00,
2013-10-11 15:48:00,75.0,9.8,27.31,WSW,248,2.5,8.7,8,0.00,,---,0.00,VWS V14.01,2013-10-11 22:48:00,
2013-10-11 15:53:00,74.8,9.6,27.31,NNE,22,3.4,8.7,8,0.00,,---,0.00,VWS V14.01,2013-10-11 22:53:00,
2013-10-11 15:58:00,74.7,9.5,27.31,West,270,4.9,8.7,8,0.00,,---,0.00,VWS V14.01,2013-10-11 22:58:00,
2013-10-11 16:04:00,74.8,9.6,27.31,West,270,3.1,7.6,8,0.00,,---,0.00,VWS V14.01,2013-10-11 23:04:00,
2013-10-11 16:09:00,74.8,9.6,27.31,NW,315,2.9,7.6,8,0.00,,---,0.00,VWS V14.01,2013-10-11 23:09:00,
2013-10-11 16:14:00,74.8,9.6,27.31,NW,315,1.6,8.7,8,0.00,,---,0.00,VWS V14.01,2013-10-11 23:14:00,
2013-10-11 16:19:00,74.7,9.5,27.31,WNW,292,3.1,8.7,8,0.00,,---,0.00,VWS V14.01,2013-10-11 23:19:00,
2013-10-11 16:24:00,74.7,9.5,27.31,WNW,292,5.6,8.7,8,0.00,,---,0.00,VWS V14.01,2013-10-11 23:24:00,
2013-10-11 16:29:00,74.5,9.4,27.31,NW,315,4.7,8.7,8,0.00,,---,0.00,VWS V14.01,2013-10-11 23:29:00,
2013-10-11 16:34:00,74.3,9.2,27.31,NNW,338,3.4,8.7,8,0.00,,---,0.00,VWS V14.01,2013-10-11 23:34:00,
2013-10-11 16:39:00,74.3,9.2,27.31,NW,315,7.4,8.7,8,0.00,,---,0.00,VWS V14.01,2013-10-11 23:39:00,
2013-10-11 16:44:00,74.1,9.1,27.31,West,270,3.1,8.7,8,0.00,,---,0.00,VWS V14.01,2013-10-11 23:44:00,
2013-10-11 16:49:00,73.9,9.0,27.31,NW,315,5.4,11.9,8,0.00,,---,0.00,VWS V14.01,2013-10-11 23:49:00,
2013-10-11 16:54:00,73.9,9.0,27.31,North,0,4.3,11.9,8,0.00,,---,0.00,VWS V14.01,2013-10-11 23:54:00,
2013-10-11 16:59:00,73.8,8.8,27.31,NNW,338,4.3,11.9,8,0.00,,---,0.00,VWS V14.01,2013-10-11 23:59:00,
2013-10-11 17:04:00,73.8,8.8,27.31,NW,315,5.8,7.4,8,0.00,,---,0.00,VWS V14.01,2013-10-12 00:04:00,
2013-10-11 17:09:00,73.6,8.7,27.31,NW,315,4.0,7.8,8,0.00,,---,0.00,VWS V14.01,2013-10-12 00:09:00,
2013-10-11 17:14:00,73.4,8.6,27.31,West,270,5.6,8.7,8,0.00,,---,0.00,VWS V14.01,2013-10-12 00:14:00,
2013-10-11 17:19:00,73.2,11.1,27.31,WNW,292,6.5,10.3,9,0.00,,---,0.00,VWS V14.01,2013-10-12 00:19:00,
2013-10-11 17:24:00,73.0,10.9,27.31,NW,315,6.9,10.5,9,0.00,,---,0.00,VWS V14.01,2013-10-12 00:24:00,
2013-10-11 17:29:00,72.7,10.6,27.31,WNW,292,3.1,10.5,9,0.00,,---,0.00,VWS V14.01,2013-10-12 00:29:00,
2013-10-11 17:34:00,72.5,10.5,27.31,NW,315,3.8,10.5,9,0.00,,---,0.00,VWS V14.01,2013-10-12 00:34:00,
2013-10-11 17:39:00,72.3,10.4,27.31,NW,315,7.2,10.5,9,0.00,,---,0.00,VWS V14.01,2013-10-12 00:39:00,
2013-10-11 17:44:00,72.0,10.1,27.31,West,270,4.7,10.5,9,0.00,,---,0.00,VWS V14.01,2013-10-12 00:44:00,
2013-10-11 17:49:00,71.8,10.0,27.31,NNW,338,7.4,10.5,9,0.00,,---,0.00,VWS V14.01,2013-10-12 00:49:00,
2013-10-11 17:54:00,71.4,9.7,27.31,NNW,338,4.9,10.5,9,0.00,,---,0.00,VWS V14.01,2013-10-12 00:54:00,
2013-10-11 17:59:00,71.2,9.6,27.31,North,0,4.3,10.5,9,0.00,,---,0.00,VWS V14.01,2013-10-12 00:59:00,
2013-10-11 18:04:00,70.9,9.3,27.31,NW,315,3.4,7.4,9,0.00,,---,0.00,VWS V14.01,2013-10-12 01:04:00,
2013-10-11 18:09:00,70.7,9.1,27.31,NW,315,3.6,7.8,9,0.00,,---,0.00,VWS V14.01,2013-10-12 01:09:00,
2013-10-11 18:15:00,70.5,9.0,27.31,West,270,5.4,7.8,9,0.00,,---,0.00,VWS V14.01,2013-10-12 01:15:00,
2013-10-11 18:20:00,70.2,8.7,27.31,NW,315,6.3,8.5,9,0.00,,---,0.00,VWS V14.01,2013-10-12 01:20:00,
2013-10-11 18:25:00,70.0,8.6,27.31,West,270,3.8,8.5,9,0.00,,---,0.00,VWS V14.01,2013-10-12 01:25:00,
2013-10-11 18:30:00,69.8,8.5,27.31,NW,315,4.9,8.5,9,0.00,,---,0.00,VWS V14.01,2013-10-12 01:30:00,
2013-10-11 18:35:00,69.6,10.7,27.31,West,270,5.8,9.4,10,0.00,,---,0.00,VWS V14.01,2013-10-12 01:35:00,
2013-10-11 18:40:00,69.4,10.5,27.31,NNW,338,4.3,9.4,10,0.00,,---,0.00,VWS V14.01,2013-10-12 01:40:00,
2013-10-11 18:45:00,69.3,10.4,27.31,WNW,292,4.3,9.4,10,0.00,,---,0.00,VWS V14.01,2013-10-12 01:45:00,
2013-10-11 18:50:00,69.1,10.3,27.31,WNW,292,4.0,9.4,10,0.00,,---,0.00,VWS V14.01,2013-10-12 01:50:00,
2013-10-11 18:55:00,68.9,10.1,27.31,NW,315,3.6,9.4,10,0.00,,---,0.00,VWS V14.01,2013-10-12 01:55:00,
2013-10-11 19:00:00,68.7,10.0,27.31,West,270,4.3,4.3,10,0.00,,---,0.00,VWS V14.01,2013-10-12 02:00:00,
2013-10-11 19:05:00,68.5,9.8,27.31,West,270,7.2,9.2,10,0.00,,---,0.00,VWS V14.01,2013-10-12 02:05:00,
2013-10-11 19:10:00,68.4,9.7,27.31,NNW,338,6.3,9.2,10,0.00,,---,0.00,VWS V14.01,2013-10-12 02:10:00,
2013-10-11 19:15:00,68.2,9.6,27.31,NW,315,4.3,9.2,10,0.00,,---,0.00,VWS V14.01,2013-10-12 02:15:00,
2013-10-11 19:20:00,68.0,9.4,27.31,West,270,7.2,9.2,10,0.00,,---,0.00,VWS V14.01,2013-10-12 02:20:00,
2013-10-11 19:25:00,68.0,9.4,27.31,West,270,3.8,9.2,10,0.00,,---,0.00,VWS V14.01,2013-10-12 02:25:00,
2013-10-11 19:30:00,67.8,9.3,27.31,WNW,292,2.5,9.2,10,0.00,,---,0.00,VWS V14.01,2013-10-12 02:30:00,
2013-10-11 19:35:00,67.6,9.1,27.31,WNW,292,4.0,9.2,10,0.00,,---,0.00,VWS V14.01,2013-10-12 02:35:00,
2013-10-11 19:40:00,67.6,9.1,27.31,WNW,292,4.9,9.2,10,0.00,,---,0.00,VWS V14.01,2013-10-12 02:40:00,
2013-10-11 19:45:00,67.5,9.0,27.31,WNW,292,4.9,9.2,10,0.00,,---,0.00,VWS V14.01,2013-10-12 02:45:00,
2013-10-11 19:50:00,67.3,8.9,27.31,NW,315,2.7,9.2,10,0.00,,---,0.00,VWS V14.01,2013-10-12 02:50:00,
2013-10-11 19:55:00,67.1,8.7,27.31,WNW,292,2.7,9.2,10,0.00,,---,0.00,VWS V14.01,2013-10-12 02:55:00,
2013-10-11 20:00:00,67.1,8.7,27.31,West,270,2.9,2.9,10,0.00,,---,0.00,VWS V14.01,2013-10-12 03:00:00,
2013-10-11 20:05:00,66.9,8.6,27.31,NW,315,2.5,7.2,10,0.00,,---,0.00,VWS V14.01,2013-10-12 03:05:00,
2013-10-11 20:10:00,66.7,8.5,27.31,NW,315,2.5,7.2,10,0.00,,---,0.00,VWS V14.01,2013-10-12 03:10:00,
2013-10-11 20:15:00,66.6,8.3,27.31,NW,315,1.3,7.2,10,0.00,,---,0.00,VWS V14.01,2013-10-12 03:15:00,
2013-10-11 20:20:00,66.4,8.2,27.31,SW,225,2.0,7.2,10,0.00,,---,0.00,VWS V14.01,2013-10-12 03:20:00,
2013-10-11 20:26:00,66.4,8.2,27.31,West,270,1.6,7.2,10,0.00,,---,0.00,VWS V14.01,2013-10-12 03:26:00,
2013-10-11 20:31:00,66.2,8.1,27.31,West,270,0.0,7.2,10,0.00,,---,0.00,VWS V14.01,2013-10-12 03:31:00,
2013-10-11 20:36:00,65.8,7.8,27.31,NW,315,2.2,7.2,10,0.00,,---,0.00,VWS V14.01,2013-10-12 03:36:00,
2013-10-11 20:41:00,65.7,7.6,27.31,WSW,248,1.3,7.2,10,0.00,,---,0.00,VWS V14.01,2013-10-12 03:41:00,
2013-10-11 20:46:00,65.5,7.5,27.31,WNW,292,2.2,7.2,10,0.00,,---,0.00,VWS V14.01,2013-10-12 03:46:00,
2013-10-11 20:51:00,65.5,7.5,27.31,West,270,2.9,7.2,10,0.00,,---,0.00,VWS V14.01,2013-10-12 03:51:00,
2013-10-11 20:56:00,65.3,7.4,27.31,SSW,202,1.3,7.2,10,0.00,,---,0.00,VWS V14.01,2013-10-12 03:56:00,
2013-10-11 21:01:00,65.1,7.2,27.31,West,270,2.2,4.0,10,0.00,,---,0.00,VWS V14.01,2013-10-12 04:01:00,
2013-10-11 21:02:00,64.9,7.1,27.31,WSW,248,1.1,4.0,10,0.00,,---,0.00,VWS V14.01,2013-10-12 04:02:00,
2013-10-11 21:03:00,64.9,7.1,27.31,West,270,1.3,4.0,10,0.00,,---,0.00,VWS V14.01,2013-10-12 04:03:00,
2013-10-11 21:08:00,64.8,6.9,27.31,WSW,248,1.6,4.0,10,0.00,,---,0.00,VWS V14.01,2013-10-12 04:08:00,
2013-10-11 21:13:00,64.6,6.8,27.31,WSW,248,0.0,4.0,10,0.00,,---,0.00,VWS V14.01,2013-10-12 04:13:00,
2013-10-11 21:18:00,64.4,6.7,27.31,WSW,248,0.0,4.0,10,0.00,,---,0.00,VWS V14.01,2013-10-12 04:18:00,
2013-10-11 21:23:00,64.0,8.5,27.31,North,0,0.0,4.0,11,0.00,,---,0.00,VWS V14.01,2013-10-12 04:23:00,
2013-10-11 21:28:00,63.9,8.4,27.31,North,0,0.0,4.0,11,0.00,,---,0.00,VWS V14.01,2013-10-12 04:28:00,
2013-10-11 21:33:00,63.7,8.2,27.31,North,0,0.0,4.0,11,0.00,,---,0.00,VWS V14.01,2013-10-12 04:33:00,
2013-10-11 21:38:00,63.3,7.9,27.31,ESE,112,2.0,4.0,11,0.00,,---,0.00,VWS V14.01,2013-10-12 04:38:00,
2013-10-11 21:43:00,63.0,7.7,27.31,ESE,112,0.0,4.0,11,0.00,,---,0.00,VWS V14.01,2013-10-12 04:43:00,
2013-10-11 21:48:00,62.8,7.5,27.31,ESE,112,0.0,4.0,11,0.00,,---,0.00,VWS V14.01,2013-10-12 04:48:00,
2013-10-11 21:54:00,62.6,7.4,27.31,ESE,112,2.0,4.0,11,0.00,,---,0.00,VWS V14.01,2013-10-12 04:54:00,
2013-10-11 21:59:00,62.4,7.2,27.31,East,90,0.0,4.0,11,0.00,,---,0.00,VWS V14.01,2013-10-12 04:59:00,
2013-10-11 22:04:00,62.2,7.1,27.34,East,90,1.3,1.6,11,0.00,,---,0.00,VWS V14.01,2013-10-12 05:04:00,
2013-10-11 22:09:00,62.1,7.0,27.34,East,90,0.0,1.6,11,0.00,,---,0.00,VWS V14.01,2013-10-12 05:09:00,
2013-10-11 22:14:00,61.7,6.7,27.34,East,90,0.0,1.6,11,0.00,,---,0.00,VWS V14.01,2013-10-12 05:14:00,
2013-10-11 22:19:00,61.5,6.5,27.34,East,90,1.3,1.6,11,0.00,,---,0.00,VWS V14.01,2013-10-12 05:19:00,
2013-10-11 22:24:00,61.3,6.4,27.34,East,90,0.0,1.6,11,0.00,,---,0.00,VWS V14.01,2013-10-12 05:24:00,
2013-10-11 22:29:00,61.0,6.1,27.34,East,90,2.7,2.7,11,0.00,,---,0.00,VWS V14.01,2013-10-12 05:29:00,
2013-10-11 22:34:00,60.8,6.0,27.34,East,90,0.9,2.7,11,0.00,,---,0.00,VWS V14.01,2013-10-12 05:34:00,
2013-10-11 22:39:00,60.6,7.8,27.34,East,90,2.0,2.7,12,0.00,,---,0.00,VWS V14.01,2013-10-12 05:39:00,
2013-10-11 22:44:00,60.4,7.6,27.34,East,90,1.6,2.7,12,0.00,,---,0.00,VWS V14.01,2013-10-12 05:44:00,
2013-10-11 22:49:00,60.4,7.6,27.34,East,90,2.0,2.7,12,0.00,,---,0.00,VWS V14.01,2013-10-12 05:49:00,
2013-10-11 22:54:00,60.4,7.6,27.34,East,90,0.0,2.7,12,0.00,,---,0.00,VWS V14.01,2013-10-12 05:54:00,
2013-10-11 22:59:00,60.3,7.5,27.34,East,90,0.0,2.7,12,0.00,,---,0.00,VWS V14.01,2013-10-12 05:59:00,
2013-10-11 23:05:00,60.1,7.3,27.34,East,90,1.1,2.2,12,0.00,,---,0.00,VWS V14.01,2013-10-12 06:05:00,
2013-10-11 23:10:00,60.1,7.3,27.34,East,90,2.5,2.7,12,0.00,,---,0.00,VWS V14.01,2013-10-12 06:10:00,
2013-10-11 23:15:00,59.9,7.2,27.34,NNE,22,1.6,2.9,12,0.00,,---,0.00,VWS V14.01,2013-10-12 06:15:00,
2013-10-11 23:20:00,59.7,7.0,27.34,NNE,22,1.6,2.9,12,0.00,,---,0.00,VWS V14.01,2013-10-12 06:20:00,
2013-10-11 23:25:00,59.5,6.9,27.34,NNE,22,1.3,2.9,12,0.00,,---,0.00,VWS V14.01,2013-10-12 06:25:00,
2013-10-11 23:30:00,59.4,6.8,27.31,NNE,22,0.0,2.9,12,0.00,,---,0.00,VWS V14.01,2013-10-12 06:30:00,
2013-10-11 23:35:00,59.2,6.6,27.31,NNE,22,0.0,2.9,12,0.00,,---,0.00,VWS V14.01,2013-10-12 06:35:00,
2013-10-11 23:40:00,59.2,6.6,27.31,NNE,22,1.6,2.9,12,0.00,,---,0.00,VWS V14.01,2013-10-12 06:40:00,
2013-10-11 23:45:00,58.8,6.3,27.34,NNE,22,0.9,2.9,12,0.00,,---,0.00,VWS V14.01,2013-10-12 06:45:00,
2013-10-11 23:50:00,58.8,6.3,27.34,NNE,22,0.0,2.9,12,0.00,,---,0.00,VWS V14.01,2013-10-12 06:50:00,
2013-10-11 23:55:00,58.6,6.2,27.34,East,90,2.9,3.4,12,0.00,,---,0.00,VWS V14.01,2013-10-12 06:55:00,